N0AOL-13 Weather Reports


time (UTC)temp
F
wind
direction
speed
knots
gust
knots
rain 1hr
in
rain 24hr
in
rain mn
in
humidity
%
barometer
mb
20260906212016 91 111 3.5 9.6 0.00 0.00 0.00 35 1013.2
20260906211524 91 71 5.2 9.6 0.00 0.00 0.00 35 1013.2
20260906211018 91 100 3.5 8.7 0.00 0.00 0.00 35 1013.3
20260906210519 91 105 5.2 9.6 0.00 0.00 0.00 35 1013.3
20260906210039 90 89 4.3 9.6 0.00 0.01 0.00 35 1013.4
20260906205517 90 118 3.5 10.4 0.00 0.01 0.00 35 1013.4
20260906205013 90 71 4.3 13.0 0.00 0.01 0.00 35 1013.4
20260906204526 90 90 5.2 13.0 0.00 0.01 0.00 35 1013.6
20260906204022 90 126 2.6 11.3 0.00 0.01 0.00 36 1013.7
20260906203516 90 101 5.2 11.3 0.00 0.01 0.00 36 1013.8
20260906203026 90 99 3.5 11.3 0.00 0.01 0.00 36 1013.8
20260906202518 90 98 6.1 11.3 0.00 0.01 0.00 36 1013.8
20260906202014 90 80 2.6 10.4 0.00 0.01 0.00 35 1013.8
20260906201528 90 65 3.5 12.2 0.00 0.01 0.00 36 1014.0
20260906201020 90 91 5.2 12.2 0.00 0.01 0.00 36 1014.0
20260906200517 90 94 4.3 9.6 0.00 0.01 0.00 36 1013.9
20260906200027 90 69 4.3 9.6 0.00 0.01 0.00 36 1014.0
20260906195520 90 111 5.2 11.3 0.00 0.01 0.00 36 1013.8
20260906195014 90 92 4.3 11.3 0.00 0.01 0.00 37 1013.8
20260906194528 90 57 6.1 11.3 0.00 0.01 0.00 35 1013.9
20260906194017 90 109 4.3 11.3 0.00 0.01 0.00 35 1014.0
20260906193518 90 119 5.2 12.2 0.00 0.01 0.00 36 1014.0
20260906193025 90 58 5.2 12.2 0.00 0.01 0.00 35 1014.0
20260906192518 90 92 5.2 10.4 0.00 0.01 0.00 36 1014.1
20260906192017 90 106 2.6 10.4 0.00 0.01 0.00 34 1014.2
20260906191539 91 82 4.3 10.4 0.00 0.01 0.00 36 1014.3
20260906191018 91 78 3.5 10.4 0.00 0.01 0.00 35 1014.3
20260906190517 91 80 3.5 9.6 0.00 0.01 0.00 36 1014.3
20260906190041 91 92 2.6 8.7 0.00 0.01 0.00 34 1014.3
20260906185518 91 61 1.7 10.4 0.00 0.01 0.00 35 1014.4
20260906185003 91 16 2.6 10.4 0.00 0.01 0.00 36 1014.5
20260906184520 90 133 6.1 10.4 0.00 0.01 0.00 36 1014.6
20260906184006 90 93 5.2 9.6 0.00 0.01 0.00 35 1014.6
20260906183503 90 9 3.5 8.7 0.00 0.01 0.00 36 1014.7
20260906183029 90 86 5.2 8.7 0.00 0.01 0.00 36 1014.7
20260906182510 90 62 3.5 8.7 0.00 0.01 0.00 35 1014.8
20260906182002 90 33 1.7 4.3 0.00 0.01 0.00 34 1014.8
20260906181531 90 334 0.9 7.0 0.00 0.01 0.00 35 1014.8
20260906181007 90 70 1.7 7.0 0.00 0.01 0.00 34 1014.9
20260906180504 90 64 1.7 5.2 0.00 0.01 0.00 35 1015.0
20260906180024 90 107 2.6 6.1 0.00 0.01 0.00 34 1015.0
20260906175509 89 167 2.6 6.1 0.00 0.01 0.00 35 1015.1
20260906175004 89 115 2.6 6.1 0.00 0.01 0.00 37 1015.1
20260906174519 89 74 2.6 5.2 0.00 0.01 0.00 36 1015.2
20260906174008 89 257 0.9 7.8 0.00 0.01 0.00 36 1015.3
20260906173508 89 98 3.5 7.8 0.00 0.01 0.00 35 1015.3
20260906173024 89 103 2.6 5.2 0.00 0.01 0.00 36 1015.4
20260906172506 88 63 2.6 7.8 0.00 0.01 0.00 37 1015.4
20260906172009 88 97 3.5 7.8 0.00 0.01 0.00 35 1015.5
20260906171524 89 126 2.6 7.0 0.00 0.01 0.00 35 1015.5
20260906171013 88 93 2.6 6.1 0.00 0.01 0.00 35 1015.6
20260906170512 88 77 2.6 6.1 0.00 0.01 0.00 36 1015.7
20260906170020 88 99 1.7 6.1 0.00 0.01 0.00 35 1015.8
20260906165508 88 87 1.7 7.8 0.00 0.01 0.00 35 1015.9
20260906165011 88 258 3.5 7.8 0.00 0.01 0.00 36 1016.0
20260906164527 87 148 2.6 6.1 0.00 0.01 0.00 37 1016.0
20260906164009 87 69 1.7 7.8 0.00 0.01 0.00 37 1016.1
20260906163510 87 37 2.6 7.8 0.00 0.01 0.00 36 1016.1
20260906163027 87 118 2.6 7.0 0.00 0.01 0.00 36 1016.2
20260906162510 86 115 1.7 7.0 0.00 0.01 0.00 36 1016.2
20260906162009 86 43 1.7 7.0 0.00 0.01 0.00 37 1016.2
20260906161529 86 263 1.7 6.1 0.00 0.01 0.00 1016.2
20260906161007 85 145 2.6 7.8 0.00 0.01 0.00 1016.1
20260906160511 85 101 2.6 7.8 0.00 0.01 0.00 40 1016.2
20260906160034 84 93 2.6 6.1 0.00 0.01 0.00 40 1016.2
20260906155510 84 102 1.7 6.1 0.00 0.01 0.00 41 1016.2
20260906155015 84 69 2.6 6.1 0.00 0.01 0.00 39 1016.2
20260906154538 84 34 1.7 5.2 0.00 0.01 0.00 41 1016.2
20260906154011 83 61 0.9 5.2 0.00 0.01 0.00 42 1016.3
20260906153513 83 113 1.7 6.1 0.00 0.01 0.00 42 1016.4
20260906153034 82 13 1.7 8.7 0.00 0.01 0.00 41 1016.4
20260906152510 82 46 3.5 8.7 0.00 0.01 0.00 41 1016.4
20260906152013 82 42 1.7 5.2 0.00 0.01 0.00 42 1016.4
20260906151528 82 74 2.6 6.1 0.00 0.01 0.00 42 1016.5
20260906151008 82 82 2.6 6.1 0.00 0.01 0.00 42 1016.4
20260906150510 81 138 1.7 5.2 0.00 0.01 0.00 42 1016.4
20260906150025 81 74 1.7 5.2 0.00 0.01 0.00 45 1016.5
20260906145511 81 11 1.7 3.5 0.00 0.01 0.00 44 1016.5
20260906145012 80 68 1.7 9.6 0.00 0.01 0.00 45 1016.6
20260906144527 80 5 1.7 9.6 0.00 0.01 0.00 46 1016.6
20260906144011 79 84 4.3 9.6 0.00 0.01 0.00 45 1016.7
20260906143512 79 234 2.6 7.8 0.00 0.01 0.00 47 1016.7
20260906143033 78 77 2.6 6.1 0.00 0.01 0.00 50 1016.7
20260906142514 77 59 1.7 6.1 0.00 0.01 0.00 54 1016.8
20260906142014 76 100 3.5 6.1 0.00 0.01 0.00 56 1016.7
20260906141525 75 84 0.9 5.2 0.00 0.01 0.00 63 1016.7
20260906141011 74 80 0.9 2.6 0.00 0.01 0.00 63 1016.7
20260906140517 72 76 0.9 2.6 0.00 0.01 0.00 65 1016.7
20260906140041 71 124 0.0 2.6 0.00 0.01 0.00 70 1016.7
20260906135509 69 124 0.0 2.6 0.00 0.01 0.00 71 1016.8
20260906135013 68 78 0.0 0.0 0.00 0.01 0.00 74 1016.8
20260906134529 67 78 0.0 1.7 0.00 0.01 0.00 74 1016.7
20260906134010 66 78 0.0 1.7 0.00 0.01 0.00 75 1016.7
20260906133515 65 243 0.0 0.0 0.00 0.01 0.00 77 1016.6
20260906133028 64 243 0.0 0.0 0.00 0.01 0.00 77 1016.7
20260906132508 64 243 0.0 0.0 0.00 0.01 0.00 78 1016.8
20260906132012 63 243 0.0 0.0 0.00 0.01 0.00 77 1016.7
20260906131529 63 240 0.0 0.0 0.00 0.01 0.00 79 1016.7
20260906131010 62 240 0.0 0.0 0.00 0.01 0.00 79 1016.7
20260906130518 62 240 0.0 0.0 0.00 0.01 0.00 79 1016.8
20260906130039 62 240 0.0 0.0 0.00 0.01 0.00 79 1016.8
20260906125510 62 240 0.0 0.0 0.00 0.01 0.00 78 1016.8
20260906125011 62 240 0.0 0.0 0.00 0.01 0.00 79 1016.8
20260906124504 62 240 0.0 0.0 0.00 0.01 0.00 78 1016.7
20260906124011 62 240 0.0 0.0 0.00 0.01 0.00 77 1016.6
20260906123503 62 240 0.0 0.0 0.00 0.01 0.00 77 1016.6
20260906123011 62 240 0.0 0.0 0.00 0.01 0.00 77 1016.6
20260906122511 62 240 0.0 0.0 0.00 0.01 0.00 77 1016.5
20260906122004 62 240 0.0 0.0 0.00 0.01 0.00 78 1016.5
20260906121505 62 240 0.0 0.0 0.00 0.01 0.00 78 1016.5
20260906121011 62 240 0.0 0.0 0.00 0.01 0.00 78 1016.5
20260906120507 62 240 0.0 0.0 0.00 0.01 0.00 78 1016.5
20260906120005 62 240 0.0 0.0 0.00 0.01 0.00 77 1016.4
20260906115511 63 240 0.0 0.0 0.00 0.01 0.00 77 1016.3
20260906115006 63 240 0.0 0.0 0.00 0.01 0.00 76 1016.2
20260906114508 63 240 0.0 0.0 0.00 0.01 0.00 77 1016.3
20260906114013 63 240 0.0 0.0 0.00 0.01 0.00 77 1016.3
20260906113504 63 240 0.0 0.0 0.00 0.01 0.00 77 1016.2
20260906113006 63 240 0.0 0.0 0.00 0.01 0.00 77 1016.3
20260906112512 63 240 0.0 0.0 0.00 0.01 0.00 78 1016.3
20260906112009 63 240 0.0 0.0 0.00 0.01 0.00 78 1016.2
20260906111518 62 240 0.0 0.0 0.00 0.01 0.00 79 1016.2
20260906111011 62 240 0.0 0.0 0.00 0.01 0.00 80 1016.1
20260906110508 62 240 0.0 1.7 0.00 0.01 0.00 79 1016.0
20260906110012 62 231 0.0 1.7 0.00 0.01 0.00 80 1016.0
20260906105513 62 202 0.0 1.7 0.00 0.01 0.00 80 1016.1
20260906105006 62 164 0.0 0.9 0.00 0.01 0.00 80 1016.2
20260906104512 62 219 0.9 0.9 0.00 0.01 0.00 81 1016.1
20260906104012 62 207 0.0 0.9 0.00 0.01 0.00 81 1016.2
20260906103506 62 207 0.0 0.9 0.00 0.01 0.00 81 1016.2
20260906103008 62 207 0.0 0.9 0.00 0.01 0.00 81 1016.1
20260906102512 62 207 0.0 0.0 0.00 0.01 0.00 81 1016.1
20260906102006 62 207 0.0 1.7 0.00 0.01 0.00 81 1016.2
20260906101508 61 207 0.0 1.7 0.00 0.01 0.00 82 1016.1
20260906101013 61 208 0.0 1.7 0.00 0.01 0.00 83 1016.1
20260906100507 61 90 0.0 2.6 0.00 0.01 0.00 81 1016.1
20260906100010 61 90 0.0 2.6 0.00 0.01 0.00 80 1016.1
20260906095511 61 140 0.0 0.0 0.00 0.01 0.00 82 1016.0
20260906095003 61 140 0.0 0.0 0.00 0.01 0.00 83 1016.0
20260906094513 61 140 0.0 0.0 0.00 0.01 0.00 83 1016.1
20260906094012 60 140 0.0 0.0 0.00 0.01 0.00 82 1016.1
20260906093508 61 56 0.0 0.0 0.00 0.01 0.00 80 1016.1
20260906093010 61 56 0.0 1.7 0.00 0.01 0.00 81 1016.0
20260906092513 61 56 0.0 1.7 0.00 0.01 0.00 80 1016.1
20260906092007 62 56 0.0 0.9 0.00 0.01 0.00 82 1016.1
20260906091517 61 293 0.0 0.0 0.00 0.01 0.00 81 1016.1
20260906091012 62 293 0.0 0.0 0.00 0.01 0.00 81 1016.0
20260906090509 62 293 0.0 0.9 0.00 0.01 0.00 80 1015.9
20260906090006 61 293 0.0 0.9 0.00 0.01 0.00 80 1015.8
20260906085514 61 293 0.0 0.9 0.00 0.01 0.00 79 1015.8
20260906085010 62 296 0.0 1.7 0.00 0.01 0.00 77 1015.7
20260906084516 63 292 0.0 1.7 0.00 0.01 0.00 78 1015.7
20260906084011 63 292 0.0 1.7 0.00 0.01 0.00 77 1015.8
20260906083509 63 292 0.9 1.7 0.00 0.01 0.00 78 1015.8
20260906083014 63 273 0.9 1.7 0.00 0.01 0.00 77 1016.1
20260906082513 63 246 0.0 1.7 0.00 0.01 0.00 78 1016.2
20260906082009 63 252 0.0 1.7 0.00 0.01 0.00 78 1016.1
20260906081524 63 221 0.0 1.7 0.00 0.01 0.00 77 1016.2
20260906081012 63 215 0.9 4.3 0.00 0.01 0.00 77 1016.2
20260906080508 63 295 2.6 4.3 0.00 0.01 0.00 78 1016.2
20260906080008 63 306 1.7 2.6 0.00 0.01 0.00 78 1016.2
20260906075514 62 275 0.9 2.6 0.00 0.01 0.00 79 1016.4
20260906075007 62 281 1.7 2.6 0.00 0.01 0.00 81 1016.5
20260906074508 61 274 0.0 0.0 0.00 0.01 0.00 80 1016.6
20260906074012 61 275 0.0 0.0 0.00 0.01 0.00 79 1016.5
20260906073508 62 275 0.0 0.0 0.00 0.01 0.00 79 1016.4
20260906073007 62 20 0.0 0.0 0.00 0.01 0.00 78 1016.5
20260906072512 62 20 0.0 0.0 0.00 0.01 0.00 78 1016.5
20260906072009 62 20 0.0 0.0 0.00 0.01 0.00 79 1016.5
20260906071508 62 20 0.0 0.0 0.00 0.01 0.00 79 1016.4
20260906071012 62 20 0.0 0.0 0.00 0.01 0.00 79 1016.4
20260906070507 62 20 0.0 0.0 0.00 0.01 0.00 78 1016.3
20260906070009 62 20 0.0 0.0 0.00 0.01 0.00 78 1016.2
20260906065513 62 20 0.0 0.0 0.00 0.01 0.00 77 1016.2
20260906065008 62 20 0.0 1.7 0.00 0.01 0.00 77 1016.3
20260906064506 62 20 0.0 1.7 0.00 0.01 0.00 77 1016.1
20260906064012 62 20 0.0 0.0 0.00 0.01 0.00 77 1016.2
20260906063508 62 20 0.0 0.0 0.00 0.01 0.00 76 1015.9
20260906063010 62 20 0.0 0.0 0.00 0.01 0.00 76 1015.9
20260906062511 62 20 0.0 0.0 0.00 0.01 0.00 76 1015.8
20260906062008 62 83 0.0 0.0 0.00 0.01 0.00 76 1015.9
20260906061508 63 83 0.0 0.0 0.00 0.01 0.00 74 1015.8
20260906061012 63 83 0.0 1.7 0.00 0.01 0.00 73 1015.7
20260906060511 64 83 0.0 2.6 0.00 0.01 0.00 72 1015.7
20260906060034 65 82 0.9 2.6 0.00 0.01 0.00 72 1015.8
20260906055512 64 270 0.0 0.0 0.00 0.01 0.01 72 1015.6
20260906055006 64 270 0.0 0.0 0.00 0.01 0.01 73 1015.6
20260906054534 64 270 0.0 0.0 0.00 0.01 0.01 73 1015.6
20260906054014 64 270 0.0 0.0 0.00 0.01 0.01 72 1015.7
20260906053507 64 270 0.0 0.0 0.00 0.01 0.01 73 1016.0
20260906053038 65 270 0.0 0.0 0.00 0.01 0.01 71 1016.1
20260906052512 65 270 0.0 0.0 0.00 0.01 0.01 70 1016.3
20260906052009 65 270 0.0 0.0 0.00 0.01 0.01 69 1016.3
20260906051535 66 270 0.0 0.0 0.00 0.01 0.01 69 1016.3
20260906051014 66 270 0.0 0.0 0.00 0.01 0.01 69 1016.4
20260906050507 67 270 0.0 0.0 0.00 0.01 0.01 66 1016.5
20260906050054 67 270 0.0 0.0 0.00 0.01 0.01 67 1016.6
20260906045515 67 270 0.0 2.6 0.00 0.01 0.01 66 1016.7
20260906045008 67 258 0.0 2.6 0.00 0.01 0.01 66 1016.6
20260906044532 67 264 0.9 1.7 0.00 0.01 0.01 67 1016.5
20260906044012 66 350 0.0 0.0 0.00 0.01 0.01 69 1016.5
20260906043510 66 350 0.0 0.0 0.00 0.01 0.01 68 1016.6
20260906043033 66 350 0.0 0.0 0.00 0.01 0.01 68 1016.7
20260906042513 66 350 0.0 0.0 0.00 0.01 0.01 68 1016.8
20260906042009 65 350 0.0 0.0 0.00 0.01 0.01 69 1016.7
20260906041534 65 350 0.0 0.0 0.00 0.01 0.01 70 1016.7
20260906041017 65 352 0.0 0.9 0.00 0.01 0.01 69 1016.5
20260906040510 66 352 0.0 0.9 0.00 0.01 0.01 68 1016.4
20260906040037 67 326 0.0 0.0 0.00 0.01 0.01 66 1016.4
20260906035512 67 326 0.0 0.0 0.00 0.01 0.01 66 1016.3
20260906035010 68 326 0.0 0.0 0.00 0.01 0.01 65 1016.2
20260906034508 68 326 0.0 1.7 0.00 0.01 0.01 64 1016.1
20260906034015 67 326 0.0 1.7 0.00 0.01 0.01 65 1016.2
20260906033507 67 326 0.0 1.7 0.00 0.01 0.01 66 1016.3
20260906033011 68 326 0.0 2.6 0.00 0.01 0.01 65 1016.2
20260906032515 68 326 0.9 2.6 0.00 0.01 0.01 64 1016.3
20260906032007 69 317 0.9 2.6 0.00 0.01 0.01 63 1016.3
20260906031514 69 283 0.0 0.0 0.00 0.01 0.01 64 1016.3
20260906031012 68 293 0.0 0.0 0.00 0.01 0.01 64 1016.2
20260906030512 68 286 0.0 0.0 0.00 0.01 0.01 65 1016.4
20260906030011 68 286 0.0 0.9 0.00 0.01 0.01 66 1016.4
20260906025512 69 286 0.0 1.7 0.00 0.01 0.01 63 1016.2
20260906025011 70 272 0.0 1.7 0.00 0.01 0.01 62 1016.2
20260906024510 70 248 0.0 0.9 0.00 0.01 0.01 61 1016.2
20260906024013 70 338 0.0 1.7 0.00 0.01 0.01 62 1016.2
20260906023508 70 338 0.0 1.7 0.00 0.01 0.01 62 1016.2
20260906023008 70 338 0.0 1.7 0.00 0.01 0.01 62 1016.0
20260906022515 71 338 0.0 1.7 0.00 0.01 0.01 62 1015.9
20260906022009 71 301 0.0 1.7 0.00 0.01 0.01 61 1015.8
20260906021512 72 251 0.0 1.7 0.00 0.01 0.01 60 1015.6
20260906021015 72 303 0.0 0.0 0.00 0.01 0.01 61 1015.5
20260906020511 73 259 0.0 0.0 0.00 0.01 0.01 59 1015.5
20260906020010 73 259 0.0 0.0 0.00 0.01 0.01 59 1015.6
20260906015513 73 259 0.0 0.9 0.00 0.01 0.01 57 1015.4
20260906015010 73 259 0.0 0.9 0.00 0.01 0.01 57 1015.4
20260906014510 73 240 0.0 0.0 0.00 0.01 0.01 58 1015.4
20260906014013 74 240 0.0 1.7 0.00 0.01 0.01 58 1015.4
20260906013510 74 214 0.0 1.7 0.00 0.01 0.01 58 1015.4
20260906013011 75 224 0.0 0.0 0.00 0.01 0.01 55 1015.4
20260906012515 76 224 0.0 0.0 0.00 0.01 0.01 56 1015.3
20260906012012 76 224 0.0 0.0 0.00 0.01 0.01 53 1015.3
20260906011511 76 224 0.0 0.0 0.00 0.01 0.01 53 1015.4
20260906011013 76 224 0.0 0.0 0.00 0.01 0.01 53 1015.3
20260906010516 77 224 0.0 0.0 0.00 0.01 0.01 53 1015.4
20260906010011 77 225 0.0 0.0 0.00 0.01 0.01 53 1015.5
20260906005517 77 224 0.0 0.9 0.00 0.01 0.01 54 1015.5
20260906005009 78 224 0.0 1.7 0.00 0.01 0.01 50 1015.6
20260906004512 78 224 0.0 1.7 0.00 0.01 0.01 50 1015.7
20260906004016 78 224 0.9 0.9 0.00 0.01 0.01 49 1015.7
20260906003514 78 218 0.9 1.7 0.00 0.01 0.01 49 1015.6
20260906003012 78 217 0.0 1.7 0.00 0.01 0.01 48 1015.8
20260906002518 79 200 0.9 1.7 0.00 0.01 0.01 50 1015.8
20260906002010 79 199 0.9 1.7 0.00 0.01 0.01 47 1015.8
20260906001512 79 198 0.9 3.5 0.00 0.01 0.01 47 1015.7
20260906001016 80 221 0.9 3.5 0.00 0.01 0.01 45 1015.6
20260906000510 81 128 0.9 5.2 0.00 0.01 0.01 44 1015.8
20260906000014 82 90 1.7 8.7 0.00 0.01 0.01 43 1015.9
20260905235515 83 86 1.7 8.7 0.00 0.01 0.01 40 1015.9
20260905235012 84 107 1.7 6.1 0.00 0.01 0.01 40 1015.9
20260905234513 84 144 1.7 6.1 0.00 0.01 0.01 40 1015.8
20260905234017 84 221 0.0 1.7 0.00 0.01 0.01 43 1015.6
20260905233510 85 221 0.0 1.7 0.00 0.01 0.01 43 1015.4
20260905233022 85 221 0.0 1.7 0.00 0.01 0.01 45 1015.2
20260905232519 85 221 0.0 1.7 0.00 0.01 0.01 43 1015.1
20260905232013 85 221 0.9 1.7 0.00 0.01 0.01 40 1015.1
20260905231512 86 262 0.9 1.7 0.00 0.01 0.01 38 1015.0
20260905231015 86 271 0.0 1.7 0.00 0.01 0.01 41 1014.9
20260905230511 85 142 0.0 1.7 0.00 0.01 0.01 42 1014.9
20260905230011 85 142 0.0 1.7 0.00 0.01 0.01 43 1015.0
20260905225514 86 142 0.0 1.7 0.00 0.01 0.01 46 1015.0
20260905225010 86 142 0.0 1.7 0.00 0.01 0.01 44 1015.0
20260905224514 87 140 0.0 1.7 0.00 0.01 0.01 43 1014.9
20260905224014 87 140 0.0 3.5 0.00 0.01 0.01 42 1014.9
20260905223515 87 140 0.9 3.5 0.00 0.01 0.01 42 1014.9
20260905223016 88 104 0.9 1.7 0.00 0.01 0.01 38 1014.9
20260905222514 88 162 0.0 1.7 0.00 0.01 0.01 40 1014.8
20260905222014 88 162 0.0 1.7 0.00 0.01 0.01 38 1014.8
20260905221515 89 162 0.0 1.7 0.00 0.01 0.01 39 1014.8
20260905221016 89 162 0.0 1.7 0.00 0.01 0.01 36 1014.7
20260905220513 89 162 0.0 3.5 0.00 0.01 0.01 33 1014.6
20260905220016 89 109 0.9 3.5 0.01 0.01 0.01 32 1014.7
20260905215516 89 86 1.7 4.3 0.01 0.01 0.01 32 1014.7
20260905215010 88 106 1.7 7.0 0.01 0.01 0.01 36 1014.6
20260905214514 87 120 2.6 7.0 0.01 0.01 0.01 36 1014.5
20260905214016 87 98 0.9 7.8 0.01 0.01 0.01 36 1014.4
20260905213512 87 138 0.9 7.8 0.01 0.01 0.01 33 1014.4
20260905213015 86 65 2.6 7.0 0.01 0.01 0.01 39 1014.4
20260905212514 85 77 1.7 10.4 0.01 0.01 0.01 43 1014.8